Satellite: FO-70
Catalog number: 37380
Epoch time:      11306.49654346
Element set:    0015
Inclination:      071.9711 deg
RA of node:       094.5527 deg
Eccentricity:    0.0016849
Arg of perigee:   016.1778 deg
Mean anomaly:     343.9927 deg
Mean motion:   14.76487598 rev/day
Decay rate:       7.85e-06 rev/day^2
Epoch rev:           00237
Checksum:              340

/EX
SB KEPS @ AMSAT  $ORB11307.W
Orbital Elements  11307.WEATHER

HR AMSAT ORBITAL ELEMENTS FOR WEATHER SATELLITES
FROM WA5QGD FORT WORTH,TX November 3, 2011
Send Subscribe/unsubscribe to KEPS at http://www.amsat.org/mailman/listinfo/kep
BID: ORB11307.W
TO ALL RADIO AMATEURS BT

Satellite: NOAA-10
Catalog number: 16969
Epoch time:      11306.92514946
Element set:    0697
Inclination:      098.6082 deg
RA of node:       334.7448 deg
Eccentricity:    0.0012164
Arg of perigee:   175.8266 deg
Mean anomaly:     184.3018 deg
Mean motion:   14.27491370 rev/day
Decay rate:        2.6e-07 rev/day^2
Epoch rev:           30744
Checksum:              320

Satellite: NOAA-11
Catalog number: 19531
Epoch time:      11306.87228774
Element set:    0686
Inclination:      098.7475 deg
RA of node:       031.6763 deg
Eccentricity:    0.0011315
Arg of perigee:   148.8131 deg
Mean anomaly:     211.3728 deg
Mean motion:   14.14933323 rev/day
Decay rate:       1.47e-06 rev/day^2
Epoch rev:           19236
Checksum:              300

Satellite: NOAA-12
Catalog number: 21263
Epoch time:      11306.97753397
Element set:    0201
Inclination:      098.7455 deg
RA of node:       324.5324 deg
Eccentricity:    0.0014413
Arg of perigee:   138.6775 deg
Mean anomaly:     221.5496 deg
Mean motion:   14.25448983 rev/day
Decay rate:       -2.0e-07 rev/day^2
Epoch rev:           06418
Checksum:              302

Satellite: MET-3/5
Catalog number: 21655
Epoch time:      11306.62441362
Element set:    0250
Inclination:      082.5559 deg
RA of node:       312.9631 deg
Eccentricity:    0.0013679
Arg of perigee:   165.6196 deg
Mean anomaly:     194.5338 deg
Mean motion:   13.17030023 rev/day
Decay rate:        5.1e-07 rev/day^2
Epoch rev:           97194
Checksum:              292

Satellite: MET-2/21
Catalog number: 22782
Epoch time:      11306.87994409
Element set:    0247
Inclination:      082.5488 deg
RA of node:       212.8377 deg
Eccentricity:    0.0024064
Arg of perigee:   071.0097 deg
Mean anomaly:     289.3663 deg
Mean motion:   13.83667896 rev/day
Decay rate:        8.6e-07 rev/day^2
Epoch rev:           91773
Checksum:              351

Satellite: OKEAN-4
Catalog number: 23317
Epoch time:      11306.94163698
Element set:    0736
Inclination:      082.5392 deg
RA of node:       243.5511 deg
Eccentricity:    0.0022964
Arg of perigee:   025.8427 deg
Mean anomaly:     334.3929 deg
Mean motion:   14.83281799 rev/day
Decay rate:      2.001e-05 rev/day^2
Epoch rev:           92111
Checksum:              305

Satellite: NOAA-14
Catalog number: 23455
Epoch time:      11306.95582935
Element set:    0683
Inclination:      098.8451 deg
RA of node:       028.1566 deg
Eccentricity:    0.0008648
Arg of perigee:   244.5973 deg
Mean anomaly:     115.4301 deg
Mean motion:   14.13844926 rev/day
Decay rate:        8.5e-07 rev/day^2
Epoch rev:           86868
Checksum:              338

Satellite: NOAA-15
Catalog number: 25338
Epoch time:      11306.91578887
Element set:    0005
Inclination:      098.6699 deg
RA of node:       291.2609 deg
Eccentricity:    0.0011489
Arg of perigee:   052.3547 deg
Mean anomaly:     307.8681 deg
Mean motion:   14.24974274 rev/day
Decay rate:       3.39e-06 rev/day^2
Epoch rev:           70048
Checksum:              342

Satellite: RESURS
Catalog number: 25394
Epoch time:      11306.92759558
Element set:    0944
Inclination:      098.3061 deg
RA of node:       302.3548 deg
Eccentricity:    0.0001340
Arg of perigee:   146.5988 deg
Mean anomaly:     213.5277 deg
Mean motion:   14.24249707 rev/day
Decay rate:        9.0e-07 rev/day^2
Epoch rev:           69205
Checksum:              310

Satellite: FENGYUN1
Catalog number: 25730
Epoch time:      11306.95093655
Element set:    0472
Inclination:      098.8267 deg
RA of node:       265.1895 deg
Eccentricity:    0.0023520
Arg of perigee:   291.8652 deg
Mean anomaly:     068.0010 deg
Mean motion:   14.08991799 rev/day
Decay rate:      2.200e-05 rev/day^2
Epoch rev:           64260
Checksum:              307

Satellite: OKEAN-0
Catalog number: 25860
Epoch time:      11306.93200012
Element set:    0476
Inclination:      097.9036 deg
RA of node:       269.7099 deg
Eccentricity:    0.0000575
Arg of perigee:   055.3728 deg
Mean anomaly:     304.7535 deg
Mean motion:   14.73911455 rev/day
Decay rate:       8.49e-06 rev/day^2
Epoch rev:           66109
Checksum:              309

Satellite: NOAA-16
Catalog number: 26536
Epoch time:      11306.90088857
Element set:    0487
Inclination:      099.1267 deg
RA of node:       340.1721 deg
Eccentricity:    0.0010694
Arg of perigee:   007.3772 deg
Mean anomaly:     352.7550 deg
Mean motion:   14.12660782 rev/day
Decay rate:       -6.3e-07 rev/day^2
Epoch rev:           57294
Checksum:              314

